Date String (YYYY-MM-DD hh:mm:ss) UTC,Instrument flags,Ambient pressure (hPa),Sample flow (lpm),Bypass flow (lpm),Sample temperature (°C),Ambient temperature (°C),ASC tube jacket temperature (°C),LED temperature (°C),Box temperature (°C),Sample RH (%),Span deviation,Mass concentration (μg/m³),Mass concentration (μg/m³),Mass concentration (μg/m³)
DateTimeUTC,F1_M11,P_M11,Q1_M11,Q2_M11,T1_M11,T2_M11,T3_M11,T4_M11,T5_M11,U1_M11,ZSPAN_M11,X2_M11,X0_M11,X1_M11
2023-05-16 11:00:00,,0835.4,4.99,0.00,27.7,25.8,00.0,36.1,29.3,21.4,0000.0,0003.76,0008.33,0003.05
2023-05-16 11:01:00,,0835.4,5.01,0.00,27.7,25.8,00.0,36.1,29.2,20.5,0000.0,0003.74,0008.27,0003.01
2023-05-16 11:02:00,,0835.2,5.01,0.00,27.6,25.8,00.0,36.1,29.2,20.3,0000.0,0003.73,0008.29,0002.94
2023-05-16 11:03:00,,0835.4,5.00,0.00,27.6,25.8,00.0,36.1,29.2,20.8,0000.0,0003.72,0008.31,0002.91
2023-05-16 11:04:00,,0834.8,5.00,0.00,27.6,25.8,00.0,36.1,29.2,21.6,0000.0,0003.71,0008.34,0002.91
2023-05-16 11:05:00,,0834.8,5.01,0.00,27.6,25.9,00.0,36.1,29.3,23.1,0000.0,0003.72,0008.41,0002.94
2023-05-16 11:06:00,,0834.8,4.99,0.00,27.7,26.0,00.0,36.1,29.3,23.3,0000.0,0003.74,0008.82,0002.97
2023-05-16 11:07:00,,0835.4,4.99,0.00,27.7,26.0,00.0,36.1,29.3,23.0,0000.0,0003.77,0008.55,0003.02
2023-05-16 11:08:00,,0835.4,4.99,0.00,27.7,26.1,00.0,36.1,29.3,23.8,0000.0,0003.78,0008.65,0003.07
2023-05-16 11:09:00,,0835.1,5.00,0.00,27.7,26.1,00.0,36.1,29.3,24.2,0000.0,0003.84,0009.52,0003.14
2023-05-16 11:10:00,,0834.7,5.00,0.00,27.7,26.1,00.0,36.1,29.3,23.4,0000.0,0003.90,0009.54,0003.19
2023-05-16 11:11:00,,0834.8,5.00,0.00,27.7,26.1,00.0,36.1,29.3,21.9,0000.0,0003.88,0009.17,0003.20
2023-05-16 11:12:00,,0834.8,5.00,0.00,27.7,26.1,00.0,36.1,29.3,22.6,0000.0,0003.95,0009.39,0003.26
2023-05-16 11:13:00,,0834.9,5.00,0.00,27.7,26.0,00.0,36.1,29.3,22.9,0000.0,0004.01,0009.59,0003.34
2023-05-16 11:14:00,,0834.8,4.99,0.00,27.6,26.0,00.0,36.1,29.3,23.0,0000.0,0004.07,0009.57,0003.42
2023-05-16 11:15:00,,0835.2,5.01,0.00,27.6,26.0,00.0,36.1,29.3,22.4,0000.0,0004.12,0009.52,0003.47
2023-05-16 11:16:00,,0835.2,5.00,0.00,27.6,25.9,00.0,36.0,29.3,23.0,0000.0,0004.15,0009.52,0003.51
2023-05-16 11:17:00,,0835.2,5.01,0.00,27.6,25.9,00.0,36.0,29.3,24.3,0000.0,0004.19,0009.23,0003.56
2023-05-16 11:18:00,,0835.3,5.00,0.00,27.6,25.9,00.0,36.0,29.2,24.0,0000.0,0004.28,0009.20,0003.62
2023-05-16 11:19:00,,0835.1,5.00,0.00,27.6,25.9,00.0,36.0,29.2,22.7,0000.0,0004.29,0008.87,0003.64
2023-05-16 11:20:00,,0835.2,5.00,0.00,27.6,25.8,00.0,36.0,29.2,21.8,0000.0,0004.19,0007.78,0003.58
2023-05-16 11:21:00,,0835.0,5.00,0.00,27.6,25.8,00.0,36.0,29.2,20.9,0000.0,0004.15,0007.77,0003.53
2023-05-16 11:22:00,,0835.0,5.00,0.00,27.6,25.7,00.0,36.0,29.2,20.3,0000.0,0004.16,0008.04,0003.49
2023-05-16 11:23:00,,0834.8,5.01,0.00,27.5,25.7,00.0,36.0,29.1,20.1,0000.0,0004.08,0008.06,0003.42
2023-05-16 11:24:00,,0835.1,5.00,0.00,27.5,25.7,00.0,36.0,29.1,20.2,0000.0,0003.98,0007.77,0003.34
2023-05-16 11:25:00,,0835.1,4.99,0.00,27.5,25.7,00.0,36.0,29.1,20.2,0000.0,0003.89,0007.78,0003.25
2023-05-16 11:26:00,,0835.0,5.00,0.00,27.5,25.7,00.0,36.0,29.1,20.3,0000.0,0003.83,0007.78,0003.18
2023-05-16 11:27:00,,0834.7,5.00,0.00,27.5,25.8,00.0,36.0,29.2,20.3,0000.0,0003.77,0007.78,0003.08
2023-05-16 11:28:00,,0834.8,5.00,0.00,27.5,25.9,00.0,36.0,29.2,20.5,0000.0,0003.70,0007.81,0002.93
2023-05-16 11:29:00,,0834.7,5.00,0.00,27.6,25.9,00.0,36.0,29.2,23.4,0000.0,0003.65,0007.65,0002.86
2023-05-16 11:30:00,,0834.8,5.00,0.00,27.6,26.0,00.0,36.0,29.2,24.0,0000.0,0003.69,0007.61,0002.92
2023-05-16 11:31:00,,0834.8,5.00,0.00,27.6,26.0,00.0,36.0,29.2,22.5,0000.0,0003.74,0007.75,0002.95
2023-05-16 11:32:00,,0834.7,4.99,0.00,27.6,26.1,00.0,36.0,29.3,21.4,0000.0,0003.77,0007.78,0002.98
2023-05-16 11:33:00,,0834.7,4.99,0.00,27.6,26.1,00.0,36.0,29.3,20.8,0000.0,0003.76,0007.53,0003.01
2023-05-16 11:34:00,,0834.7,5.00,0.00,27.7,26.1,00.0,36.0,29.3,21.3,0000.0,0003.77,0007.24,0003.05
2023-05-16 11:35:00,,0834.7,5.01,0.00,27.7,26.2,00.0,36.0,29.3,22.2,0000.0,0003.83,0007.59,0003.10
2023-05-16 11:36:00,,0834.8,5.00,0.00,27.7,26.2,00.0,36.0,29.3,22.6,0000.0,0003.87,0007.83,0003.15
2023-05-16 11:37:00,,0834.7,5.00,0.00,27.7,26.2,00.0,36.0,29.3,23.5,0000.0,0003.93,0008.15,0003.22
2023-05-16 11:38:00,,0835.0,5.00,0.00,27.7,26.2,00.0,36.0,29.3,24.8,0000.0,0004.03,0008.21,0003.34
2023-05-16 11:39:00,,0834.9,5.00,0.00,27.7,26.1,00.0,36.0,29.3,26.2,0000.0,0004.17,0008.28,0003.51
2023-05-16 11:40:00,,0834.7,5.00,0.00,27.7,26.1,00.0,36.0,29.3,26.8,0000.0,0004.29,0008.30,0003.65
2023-05-16 11:41:00,,0834.8,5.00,0.00,27.7,26.1,00.0,36.0,29.3,26.7,0000.0,0004.34,0008.26,0003.74
2023-05-16 11:42:00,,0834.8,4.99,0.00,27.7,26.1,00.0,36.0,29.3,26.5,0000.0,0004.44,0008.56,0003.85
2023-05-16 11:43:00,,0834.7,4.99,0.00,27.7,26.1,00.0,36.0,29.3,26.7,0000.0,0004.55,0008.64,0004.00
2023-05-16 11:44:00,,0834.8,4.99,0.00,27.7,26.1,00.0,36.0,29.3,27.1,0000.0,0004.75,0008.80,0004.21
2023-05-16 11:45:00,,0835.0,5.00,0.00,27.7,26.1,00.0,36.0,29.3,26.8,0000.0,0004.94,0009.26,0004.42
2023-05-16 11:46:00,,0835.4,4.99,0.00,27.7,26.2,00.0,36.0,29.4,26.0,0000.0,0005.03,0009.11,0004.55
2023-05-16 11:47:00,,0835.3,5.01,0.00,27.7,26.2,00.0,36.0,29.4,25.4,0000.0,0005.06,0008.79,0004.62
2023-05-16 11:48:00,,0835.4,5.00,0.00,27.7,26.2,00.0,36.0,29.4,26.3,0000.0,0005.16,0008.59,0004.75
2023-05-16 11:49:00,,0835.4,5.01,0.00,27.7,26.2,00.0,36.0,29.4,27.1,0000.0,0005.33,0008.63,0004.93
2023-05-16 11:50:00,,0835.4,5.01,0.00,27.8,26.3,00.0,36.1,29.4,27.8,0000.0,0005.55,0008.76,0005.16
2023-05-16 11:51:00,,0834.9,4.99,0.00,27.8,26.3,00.0,36.1,29.4,28.1,0000.0,0005.77,0008.94,0005.38
2023-05-16 11:52:00,,0834.9,5.00,0.00,27.8,26.3,00.0,36.1,29.4,28.1,0000.8,0006.02,0009.18,0005.62
2023-05-16 11:53:00,,0834.9,5.00,0.00,27.8,26.3,00.0,36.1,29.4,28.1,0001.5,0006.26,0009.14,0005.89
2023-05-16 11:54:00,,0834.9,5.01,0.00,27.8,26.3,00.0,36.1,29.4,28.1,0001.5,0006.49,0009.20,0006.16
2023-05-16 11:55:00,,0835.0,5.00,0.00,27.8,26.3,00.0,36.1,29.4,28.1,0001.6,0006.66,0009.34,0006.35
2023-05-16 11:56:00,,0834.9,4.99,0.00,27.8,26.3,00.0,36.1,29.4,27.9,0001.2,0006.84,0009.30,0006.52
2023-05-16 11:57:00,,0834.9,5.00,0.00,27.8,26.3,00.0,36.1,29.4,27.9,0001.4,0007.05,0009.43,0006.72
2023-05-16 11:58:00,,0834.9,4.99,0.00,27.8,26.3,00.0,36.1,29.4,28.0,0001.8,0007.32,0009.68,0006.98
2023-05-16 11:59:00,,0835.0,5.00,0.00,27.8,26.3,00.0,36.1,29.4,28.3,0002.1,0007.55,0009.87,0007.23
